Time,TemperatureF,DewpointF,PressureIn,WindDirection,WindDirectionDegrees,WindSpeedMPH,WindSpeedGustMPH,Humidity,HourlyPrecipIn,Conditions,Clouds,dailyrainin,SoftwareType,DateUTC
2013-03-18 00:13:00,27.1,26.6,30.07,NNW,337,0.0,-999.0,98,-99.99,,,0.00,Acu-Link.com,2013-03-18 04:13:00,
2013-03-18 00:40:00,27.1,26.6,30.08,NNE,22,0.0,-999.0,98,-99.99,,,0.00,Acu-Link.com,2013-03-18 04:40:00,
2013-03-18 00:58:00,25.9,25.4,30.07,East,90,0.0,-999.0,98,-99.99,,,0.00,Acu-Link.com,2013-03-18 04:58:00,
2013-03-18 01:32:00,26.6,26.1,30.08,NNW,337,0.0,-999.0,98,-99.99,,,0.00,Acu-Link.com,2013-03-18 05:32:00,
2013-03-18 01:49:00,27.9,27.4,30.08,North,0,0.0,-999.0,98,-99.99,,,0.00,Acu-Link.com,2013-03-18 05:49:00,
2013-03-18 02:08:00,28.2,27.7,30.08,NNW,337,0.0,-999.0,98,-99.99,,,0.00,Acu-Link.com,2013-03-18 06:08:00,
2013-03-18 02:25:00,28.8,28.3,30.09,NNE,22,2.7,-999.0,98,-99.99,,,0.00,Acu-Link.com,2013-03-18 06:25:00,
2013-03-18 02:47:00,29.3,28.8,30.08,East,90,0.0,-999.0,98,-99.99,,,0.00,Acu-Link.com,2013-03-18 06:47:00,
2013-03-18 03:02:00,30.0,29.5,30.08,South,180,4.2,-999.0,98,-99.99,,,0.00,Acu-Link.com,2013-03-18 07:02:00,
2013-03-18 03:17:00,30.2,29.7,30.07,ENE,67,5.8,-999.0,98,-99.99,,,0.00,Acu-Link.com,2013-03-18 07:17:00,
2013-03-18 03:33:00,30.2,29.7,30.06,East,90,3.2,-999.0,98,-99.99,,,0.00,Acu-Link.com,2013-03-18 07:33:00,
2013-03-18 03:53:00,30.4,29.9,30.07,East,90,2.2,-999.0,98,-99.99,,,0.00,Acu-Link.com,2013-03-18 07:53:00,
2013-03-18 04:18:00,30.4,29.9,30.07,ESE,112,4.2,-999.0,98,-99.99,,,0.00,Acu-Link.com,2013-03-18 08:18:00,
2013-03-18 04:40:00,30.4,29.9,30.08,ESE,112,7.3,-999.0,98,-99.99,,,0.00,Acu-Link.com,2013-03-18 08:40:00,
2013-03-18 04:56:00,30.4,29.9,30.08,SE,135,2.2,-999.0,98,-99.99,,,0.00,Acu-Link.com,2013-03-18 08:56:00,
2013-03-18 05:25:00,29.8,29.3,30.08,North,0,2.2,-999.0,98,-99.99,,,0.00,Acu-Link.com,2013-03-18 09:25:00,
2013-03-18 05:47:00,28.6,28.1,30.08,NNE,22,0.0,-999.0,98,-99.99,,,0.00,Acu-Link.com,2013-03-18 09:47:00,
2013-03-18 06:04:00,27.7,27.2,30.08,ESE,112,5.8,-999.0,98,-99.99,,,0.00,Acu-Link.com,2013-03-18 10:04:00,
2013-03-18 06:19:00,27.7,27.2,30.08,SSE,157,1.1,-999.0,98,-99.99,,,0.00,Acu-Link.com,2013-03-18 10:19:00,
2013-03-18 06:34:00,27.5,27.0,30.08,ESE,112,0.0,-999.0,98,-99.99,,,0.00,Acu-Link.com,2013-03-18 10:34:00,
2013-03-18 06:50:00,27.7,23.2,30.08,South,180,0.0,-999.0,83,-99.99,,,0.00,Acu-Link.com,2013-03-18 10:50:00,
2013-03-18 07:07:00,27.7,22.6,30.08,East,90,4.7,-999.0,81,-99.99,,,0.00,Acu-Link.com,2013-03-18 11:07:00,
2013-03-18 07:24:00,27.7,22.6,30.07,ESE,112,6.3,-999.0,81,-99.99,,,0.00,Acu-Link.com,2013-03-18 11:24:00,
2013-03-18 07:41:00,27.5,22.4,30.06,ESE,112,4.2,-999.0,81,-99.99,,,0.00,Acu-Link.com,2013-03-18 11:41:00,
2013-03-18 07:59:00,27.5,23.0,30.05,SE,135,0.0,-999.0,83,-99.99,,,0.00,Acu-Link.com,2013-03-18 11:59:00,
2013-03-18 08:17:00,27.5,23.6,30.04,North,0,0.0,-999.0,85,-99.99,,,0.00,Acu-Link.com,2013-03-18 12:17:00,
2013-03-18 08:33:00,27.7,23.5,30.02,ESE,112,0.0,-999.0,84,-99.99,,,0.00,Acu-Link.com,2013-03-18 12:33:00,
2013-03-18 08:53:00,27.9,24.3,30.01,SSE,157,0.0,-999.0,86,-99.99,,,0.00,Acu-Link.com,2013-03-18 12:53:00,
2013-03-18 09:09:00,28.0,24.4,30.00,SE,135,6.3,-999.0,86,-99.99,,,0.00,Acu-Link.com,2013-03-18 13:09:00,
2013-03-18 09:26:00,28.4,25.0,29.99,ESE,112,0.0,-999.0,87,-99.99,,,0.00,Acu-Link.com,2013-03-18 13:26:00,
2013-03-18 09:42:00,27.7,25.2,29.98,SW,225,0.0,-999.0,90,-99.99,,,0.00,Acu-Link.com,2013-03-18 13:42:00,
2013-03-18 09:58:00,27.9,24.8,29.98,East,90,0.0,-999.0,88,-99.99,,,0.00,Acu-Link.com,2013-03-18 13:58:00,
2013-03-18 10:13:00,27.9,24.8,29.96,ESE,112,0.0,-999.0,88,-99.99,,,0.00,Acu-Link.com,2013-03-18 14:13:00,
2013-03-18 10:34:00,28.0,26.5,29.97,ESE,112,0.0,-999.0,94,-99.99,,,0.00,Acu-Link.com,2013-03-18 14:34:00,
2013-03-18 10:50:00,28.0,26.5,29.97,NNE,22,1.1,-999.0,94,-99.99,,,0.00,Acu-Link.com,2013-03-18 14:50:00,
2013-03-18 11:11:00,28.2,27.7,29.97,ESE,112,0.0,-999.0,98,-99.99,,,0.00,Acu-Link.com,2013-03-18 15:11:00,
2013-03-18 11:52:00,28.6,28.1,29.95,ESE,112,8.9,-999.0,98,-99.99,,,0.00,Acu-Link.com,2013-03-18 15:52:00,
2013-03-18 12:08:00,28.9,28.4,29.95,ESE,112,2.2,-999.0,98,-99.99,,,0.00,Acu-Link.com,2013-03-18 16:08:00,
2013-03-18 12:30:00,28.6,28.1,29.96,NNW,337,0.0,-999.0,98,-99.99,,,0.00,Acu-Link.com,2013-03-18 16:30:00,
2013-03-18 12:56:00,27.5,27.0,29.92,SSE,157,0.0,-999.0,98,-99.99,,,0.00,Acu-Link.com,2013-03-18 16:56:00,
2013-03-18 13:11:00,27.1,25.4,29.91,ESE,112,0.0,-999.0,93,-99.99,,,0.00,Acu-Link.com,2013-03-18 17:11:00,
2013-03-18 13:26:00,27.0,25.0,29.90,SSE,157,0.0,-999.0,92,-99.99,,,0.00,Acu-Link.com,2013-03-18 17:26:00,
2013-03-18 13:50:00,27.0,24.5,29.87,WNW,292,4.2,-999.0,90,-99.99,,,0.00,Acu-Link.com,2013-03-18 17:50:00,
2013-03-18 14:24:00,28.9,23.2,29.88,East,90,1.1,-999.0,79,-99.99,,,0.00,Acu-Link.com,2013-03-18 18:24:00,
2013-03-18 14:43:00,28.9,22.6,29.87,ESE,112,0.0,-999.0,77,-99.99,,,0.00,Acu-Link.com,2013-03-18 18:43:00,
2013-03-18 15:11:00,29.1,20.9,29.85,South,180,1.1,-999.0,71,-99.99,,,0.00,Acu-Link.com,2013-03-18 19:11:00,
2013-03-18 15:31:00,29.1,18.8,29.86,SE,135,0.0,-999.0,65,-99.99,,,0.00,Acu-Link.com,2013-03-18 19:31:00,
2013-03-18 15:49:00,29.8,18.0,29.85,NNE,22,4.2,-999.0,61,-99.99,,,0.00,Acu-Link.com,2013-03-18 19:49:00,
2013-03-18 16:05:00,30.4,20.8,29.84,SE,135,0.0,-999.0,67,-99.99,,,0.00,Acu-Link.com,2013-03-18 20:05:00,
2013-03-18 16:25:00,30.6,21.7,29.83,SE,135,0.0,-999.0,69,-99.99,,,0.00,Acu-Link.com,2013-03-18 20:25:00,
2013-03-18 16:48:00,31.5,23.5,29.83,ESE,112,0.0,-999.0,72,-99.99,,,0.00,Acu-Link.com,2013-03-18 20:48:00,
2013-03-18 17:04:00,31.1,24.4,29.82,NNE,22,0.0,-999.0,76,-99.99,,,0.00,Acu-Link.com,2013-03-18 21:04:00,
2013-03-18 17:20:00,31.1,25.4,29.82,SSE,157,0.0,-999.0,79,-99.99,,,0.00,Acu-Link.com,2013-03-18 21:20:00,
2013-03-18 17:59:00,31.5,27.8,29.79,WNW,292,0.0,-999.0,86,-99.99,,,0.00,Acu-Link.com,2013-03-18 21:59:00,
2013-03-18 18:18:00,31.3,27.3,29.78,North,0,9.9,-999.0,85,-99.99,,,0.00,Acu-Link.com,2013-03-18 22:18:00,
2013-03-18 18:42:00,31.3,27.3,29.80,ESE,112,0.0,-999.0,85,-99.99,,,0.00,Acu-Link.com,2013-03-18 22:42:00,
2013-03-18 18:59:00,31.1,27.7,29.80,ESE,112,0.0,-999.0,87,-99.99,,,0.00,Acu-Link.com,2013-03-18 22:59:00,
2013-03-18 19:19:00,31.1,26.3,29.79,East,90,0.0,-999.0,82,-99.99,,,0.00,Acu-Link.com,2013-03-18 23:19:00,
2013-03-18 19:35:00,31.1,26.0,29.78,SSE,157,0.0,-999.0,81,-99.99,,,0.00,Acu-Link.com,2013-03-18 23:35:00,
2013-03-18 19:51:00,30.9,25.2,29.78,ESE,112,0.0,-999.0,79,-99.99,,,0.00,Acu-Link.com,2013-03-18 23:51:00,
2013-03-18 20:08:00,31.1,24.7,29.77,NE,45,0.0,-999.0,77,-99.99,,,0.00,Acu-Link.com,2013-03-19 00:08:00,
2013-03-18 20:29:00,31.1,24.7,29.75,NW,315,0.0,-999.0,77,-99.99,,,0.00,Acu-Link.com,2013-03-19 00:29:00,
2013-03-18 20:44:00,30.9,24.2,29.75,SE,135,10.9,-999.0,76,-99.99,,,0.00,Acu-Link.com,2013-03-19 00:44:00,
2013-03-18 21:01:00,30.9,23.9,29.73,ESE,112,0.0,-999.0,75,-99.99,,,0.00,Acu-Link.com,2013-03-19 01:01:00,
2013-03-18 21:33:00,30.9,23.6,29.71,North,0,0.0,-999.0,74,-99.99,,,0.00,Acu-Link.com,2013-03-19 01:33:00,
2013-03-18 21:49:00,30.9,23.3,29.70,ESE,112,0.0,-999.0,73,-99.99,,,0.00,Acu-Link.com,2013-03-19 01:49:00,
2013-03-18 22:05:00,30.9,22.6,29.72,ESE,112,2.7,-999.0,71,-99.99,,,0.00,Acu-Link.com,2013-03-19 02:05:00,
2013-03-18 22:29:00,31.1,22.8,29.70,NNE,22,0.0,-999.0,71,-99.99,,,0.00,Acu-Link.com,2013-03-19 02:29:00,
2013-03-18 22:46:00,31.1,22.1,29.70,SE,135,0.0,-999.0,69,-99.99,,,0.00,Acu-Link.com,2013-03-19 02:46:00,
2013-03-18 23:11:00,31.3,22.3,29.69,ESE,112,0.0,-999.0,69,-99.99,,,0.00,Acu-Link.com,2013-03-19 03:11:00,
2013-03-18 23:27:00,31.5,22.2,29.68,SE,135,0.0,-999.0,68,-99.99,,,0.00,Acu-Link.com,2013-03-19 03:27:00,
2013-03-18 23:43:00,31.5,21.8,29.67,South,180,0.0,-999.0,67,-99.99,,,0.00,Acu-Link.com,2013-03-19 03:43:00,